Regional Weather Roundup
Issued by NWS Pendleton, OR

Home | Current Version | Previous Version | Text Only | Print | Product List | Glossary On
Versions: 1 2 3 4 5 6 7 8 9 10 11 12 13 14 15 16 17 18 19 20 21 22 23 24 25 26 27 28 29 30 31 32 33 34 35 36 37 38 39 40 41 42 43 44 45 46 47 48 49 50
000
ASUS46 KPDT 190825
RWRPDT
PENDLETON REGIONAL WEATHER ROUNDUP
NATIONAL WEATHER SERVICE PENDLETON OREGON
1200 AM PST FRI DEC 19 2014

NOTE: FAIR INDICATES FEW OR NO CLOUDS BELOW 12,000 FEET WITH NO
SIGNIFICANT WEATHER AND/OR OBSTRUCTIONS TO VISIBILITY.

# INDICATES UNOFFICIAL STATION AND DATA

WAZ520-190910-
EAST SLOPES OF WASHINGTON CASCADES

CITY            SKY/WX      TMP DP  RH  WIND    PRES   REMARKS
#BULLFROG 2SW   N/A         35  35  100 CALM    27.42F
#BUMPING DAM    N/A         32  N/A N/A W2      N/A
#CLE ELUM HS    N/A         36  34  92  E2      29.80F
#CLE ELUM 2NW   N/A         35  34  96  S1      N/A
#CLE ELUM LAKE  N/A         32  31  96  CALM    29.88F
#CLIFFDEL 2NW   N/A         33  33  100 CALM    N/A
#GLENWOOD       N/A         37  37  100 CALM    29.88S
#MANASTASH CYN  N/A         32  30  92  CALM    29.81F
#NELSON         N/A         33  32  96  CALM    29.91F
#NELSON 3SW     N/A         31  30  96  CALM    30.10F
#NILE           N/A         34  33  96  CALM    29.14F
#RONALD 2NW     N/A         33  32  96  W1      29.69F
#SNOWDEN        N/A         36  35  96  CALM    N/A
#TEANAWAY 4NE   N/A         35  35  100 E2      N/A
#TROUT LAKE HS  N/A         38  38  100 CALM    N/A
#TROUT LAKE 1NE N/A         36  35  96  CALM    29.89F
$$

WAZ521-190910-
SIMCOE HIGHLANDS

CITY            SKY/WX      TMP DP  RH  WIND    PRES   REMARKS
#BICKLETON HS   N/A         39  35  85  CALM    34.25S
#CENTERVILLE 4W N/A         37  35  92  E6      29.59S
#CENTERVILLE 1SWN/A         36  34  92  SE3     29.85F
#GOLDENDALE     N/A         37  37  100 CALM    N/A
#GOLDENDALE 1NE N/A         38  37  96  CALM    N/A
#GOLDENDALE 1S  N/A         37  36  96  CALM    29.82S
#GOLDENDALE 5WNWN/A         37  36  96  CALM    29.87F
#GOODNOE HILLS  N/A         36  33  89  W2      N/A
#LYLE 6NE       N/A         35  35  100 SW1     29.88R
$$

WAZ026-190910-
KITTITAS VALLEY

CITY            SKY/WX      TMP DP  RH  WIND    PRES   REMARKS
ELLENSBURG AP   LGT RAIN    37  34  89  S3      29.84F FOG
#ELLENSBURG CWU N/A         35  34  96  CALM    29.85F
#ELLENSBURG 3NE N/A         34  33  96  SE1     29.86F
#ELLENSBURG     N/A         38  38  100 CALM    N/A
#ELLENSBURG 1E  N/A         35  34  96  CALM    N/A
#KITTITAS 4N    N/A         36  32  85  CALM    29.89F
#KITTITAS 3S    N/A         34  33  96  CALM    29.89F
#THORP 6N       N/A         33  33  100 SE6     29.92F
$$

WAZ027-190910-
YAKIMA VALLEY

CITY            SKY/WX      TMP DP  RH  WIND    PRES   REMARKS
YAKIMA AIRPORT  CLOUDY      39  36  89  W3      29.87F FOG
YAKIMA-VAGABOND CLOUDY      37  37  100 W2      29.87F FOG
#DONALD 2NE     N/A         37  37  100 CALM    28.73F
#GRANDVIEW      N/A         37  35  92  CALM    29.91F
#MABTON         N/A         38  38  100 CALM    29.88F
#MOXEE 2E       N/A         38  37  96  CALM    29.93S
#NACHES 2SW     N/A         37  36  96  CALM    29.93S
#OUTLOOK DOT    N/A         N/A N/A N/A CALM    N/A
#SELAH 8E       N/A         35  35  100 E7      N/A
#TERRACE HTS    N/A         37  36  96  CALM    29.88F
#WAPATO 4NE     N/A         37  37  100 CALM    28.73F
#WEST VALLEY    N/A         37  36  96  CALM    29.88F
#W YAKIMA       N/A         37  36  96  CALM    29.90F
#WHITE SWAN 5E  N/A         37  36  96  CALM    29.92F
#WILEY CITY 3W  N/A         35  31  85  CALM    29.89F
$$

WAZ028-190910-
LOWER COLUMBIA BASIN...WASHINGTON

CITY            SKY/WX      TMP DP  RH  WIND    PRES   REMARKS
PASCO           LGT RAIN    38  38  100 CALM    29.92F FOG
PROSSER AWOS    N/A         37  37  100 NE5     29.90F
RICHLAND AWOS   LGT DRIZZLE 37  37  100 CALM    29.91F
#BASIN CITY 5SW N/A         38  37  96  CALM    29.91F
#BENTON CITY    N/A         37  36  96  E6      29.82F
#CONNELL 5N     N/A         37  36  96  CALM    29.92S
#CONNELL 5NW    N/A         37  36  96  NW2     29.88F
#ELTOPIA        N/A         39  38  96  CALM    29.87F
#ELTOPIA 6NW    N/A         37  37  100 W2      28.86F
#KAHLOTUS       N/A         42  39  89  CALM    29.93S
#KENNEWICK      N/A         35  35  100 CALM    27.42F
#KENNEWICK 3S   N/A         37  36  96  CALM    29.93F
#PASCO-BROADMOORN/A         38  36  92  CALM    29.83F
#PATERSON       N/A         38  37  96  CALM    29.88F
#PROSSER        N/A         37  36  96  CALM    29.90F
#SAGEMOOR 2W    N/A         38  37  96  CALM    29.76F
#TOUCHET 2S     N/A         38  37  96  CALM    29.91F
#WEST PASCO     N/A         39  36  89  CALM    29.91F
$$

WAZ029-190910-
FOOTHILLS OF THE BLUES...WASHINGTON

CITY            SKY/WX      TMP DP  RH  WIND    PRES   REMARKS
WALLA WALLA AP  LGT RAIN    39  38  96  CALM    29.89S FOG
#COLLEGE PLACE  N/A         40  31  70  W86     29.93R WCI 23
#DAYTON SCHOOL  N/A         45  35  68  CALM    29.91S
#LOWDEN 2SE     N/A         38  37  96  CALM    29.88S
#PLEASANT VIEW 1N/A         42  39  89  CALM    29.98S
#PRESCOTT       N/A         39  38  96  CALM    29.91S
#SUDBURY        N/A         41  N/A N/A CALM    N/A
#WHITMAN COLLEGEN/A         38  37  96  CALM    29.98R
#WAITSBURG 5S   N/A         44  38  79  S1      30.01S
#WALLA WALLA 5E N/A         45  38  76  E2      N/A
#WALLA WALLA U  N/A         38  37  96  CALM    29.94R
#WHITMAN MISSIONN/A         38  37  96  W1      29.95R
$$

WAZ030-190910-
BLUE MOUNTAINS...WASHINGTON

CITY            SKY/WX      TMP DP  RH  WIND    PRES   REMARKS
#DIXIE 5SE      N/A         46  30  53  S10     29.81R
#SKI BLUEWOOD   N/A         37  32  82  SW9     29.98F
$$

ORZ009-041-WAZ024-190910-
COLUMBIA RIVER GORGE

CITY            SKY/WX      TMP DP  RH  WIND    PRES   REMARKS
HOOD RIVER AP   RAIN        39  39  100 CALM    29.89S
THE DALLES AP   CLOUDY      40  38  92  CALM    29.90S FOG
#ARLINGTON AIRPON/A         36  36  100 CALM    30.02S
#ARLINGTON HS   N/A         39  37  92  N2      29.82F
#CELILO DOT     N/A         41  36  82  NE2     N/A
#LYLE           N/A         41  40  96  CALM    29.91F
#MARYHILL 2W    N/A         40  39  96  N1      N/A
#MOSIER 1S      N/A         38  37  96  CALM    29.91R
#MURDOCK        N/A         42  41  96  NW1     29.93R
#RUFUS DOT      N/A         41  37  86  CALM    N/A

$$

ORZ510-190910-
NORTH CENTRAL OREGON

CITY            SKY/WX      TMP DP  RH  WIND    PRES   REMARKS
#CHENOWITH 1W   N/A         35  35  100 CALM    N/A
#COW CYN RST AREN/A         46  33  60  S12     N/A    WCI 40
#DUFUR 9E       N/A         35  34  96  W3      29.93S
#GRASS VALLEY   N/A         37  37  100 N1      N/A
#GRASS VALLEY 1SN/A         38  37  96  CALM    29.88F
#KENT DOT       N/A         44  29  55  S15     N/A    WCI 37
#MAUPIN SCHOOL  N/A         39  37  92  CALM    29.87S
#MORO SCHOOL    N/A         36  36  100 CALM    29.85F
#SHANIKO 4NW    N/A         42  34  73  S15     29.81F WCI 34
#TYGH VALLEY 2NEN/A         38  36  92  CALM    29.89S
#WAPANITIA AIRPON/A         37  36  96  CALM    29.91S
#WASCO DOT      N/A         38  35  89  E3      N/A
#WASCO AIRPORT  N/A         36  34  92  E5      N/A
#WASCO 5NE      N/A         35  34  96  CALM    29.90F
$$

ORZ511-190910-
CENTRAL OREGON

CITY            SKY/WX      TMP DP  RH  WIND    PRES   REMARKS
BEND AIRPORT    LGT RAIN    41  36  82  S8      29.90R
MADRAS AIRPORT  CLOUDY      46  36  68  S20G29  29.85S WCI 38
PRINEVILLE AP   CLOUDY      45  36  70  SE16    29.89S WCI 38
REDMOND AIRPORT CLOUDY      43  35  73  S6      29.88R
#BEND 1SW       N/A         38  36  92  N1      N/A
#BEND-AWBREY    N/A         40  37  89  SW3     29.92R
#BEND-KIM LN    N/A         42  37  82  SW2     29.85R
#CROOKED RVR RANN/A         46  38  73  W12G24  29.88R WCI 40
#CULVER         N/A         47  37  68  SE14G29 29.80S WCI 41
#LAKE BILLY CHINN/A         44  29  55  S3      29.95R
#POWELL BUTTE 3EN/A         43  34  70  SE6     N/A
#POWELL BUTTE   N/A         45  35  68  SW15    29.52R WCI 38
#PRINEVILLE 3N  N/A         45  37  73  E3      29.88S
#WARM SPRINGS   N/A         49  40  71  S2      29.82R


ORZ509-190910-
EAST SLOPES OF OREGON CASCADES

CITY            SKY/WX      TMP DP  RH  WIND    PRES   REMARKS
#BLUE BOX PASS  N/A         37  -13 11  CALM    N/A
#BLACK BUTTE RNCN/A         36  36  100 CALM    29.93R
#CAMP SHERMAN   N/A         35  33  92  CALM    29.89F
#LA PINE DOT    N/A         38  32  79  SE6     N/A
#LA PINE 4NW    N/A         37  33  85  CALM    29.99S
#LAVA BUTTE DOT N/A         38  30  73  SE5     N/A
#MT BACHELOR-MIDN/A         29  28  96  N23G47  N/A    WCI 15
#SISTERS AIRPOR N/A         35  35  100 CALM    30.17S
#SISTERS ODOT   N/A         37  N/A N/A CALM    N/A
#SISTERS 1NW    N/A         37  35  92  E7      N/A
#SISTERS 3N     N/A         34  32  92  CALM    29.90R
#SUNRIVER       N/A         38  36  92  SE3     29.83R
#TUMALO 3W      N/A         40  36  85  E7      29.80S
#WANOGA BUTTE D N/A         31  31  100 W15G26  N/A    WCI 20

$$

ORZ044-190910-
LOWER COLUMBIA BASIN...OREGON

CITY            SKY/WX      TMP DP  RH  WIND    PRES   REMARKS
HERMISTON       CLOUDY      38  37  96  E3      29.87F FOG
#BOARDMAN 3W    N/A         38  38  100 CALM    29.62S
#BOARDMAN 8SW   N/A         37  36  96  CALM    29.89F
#ECHO 8SW       N/A         38  36  92  E1      29.85F
#IONE SCHOOL    N/A         37  28  70  E3      29.85F
#IRRIGON 4NW    N/A         39  39  100 NE6     N/A
#UMATILLA SCHOOLN/A         36  36  100 E5      29.93F
#UMATILLA       N/A         39  35  85  E2      29.85F
$$

ORZ507-190910-
NORTHERN FOOTHILLS OF THE BLUES

CITY            SKY/WX      TMP DP  RH  WIND    PRES   REMARKS
PENDLETON AIRPT CLOUDY      38  37  96  NE5     29.86F FOG
#ADAMS 3WNW     N/A         46  38  73  CALM    29.91F
#ATHENA         N/A         49  37  63  S3      29.93S
#CAYUSE         N/A         50  37  61  SE23G35 29.88R
#HELIX SCHOOL   N/A         44  38  79  E7      29.92S
#HELIX 3N       N/A         44  39  82  E9      29.84F
#HOLDMAN 5SE    N/A         38  37  96  CALM    29.87F
#HOLDMAN 6E     N/A         43  39  86  CALM    29.71F
#M-F GROVE ELEM N/A         38  35  89  N6      29.88R
#M-FREEWATER 5SEN/A         52  37  56  E12     29.88S
#PENDLETON DNTN N/A         40  39  96  CALM    28.67F
#PDT AQUATIC CTRN/A         41  40  96  CALM    29.85F
#PENDLETON 5NE  N/A         46  39  76  CALM    29.83F
#PDT SUNRIDGE   N/A         40  38  92  NE3     29.88F
#PENDLETON 7NW  N/A         37  34  89  CALM    N/A
#PILOT ROCK     N/A         52  32  46  N1      29.88S
#TUTUILLA       N/A         44  37  76  E1      29.89F
#UMAPINE 2E     N/A         38  37  96  W1      29.88S
#WESTON SCHOOL  N/A         49  33  54  SW8     29.88R

$$

ORZ508-190910-
SOUTHERN FOOTHILLS OF THE BLUES

CITY            SKY/WX      TMP DP  RH  WIND    PRES   REMARKS
LEXINGTON       MOCLDY      50  39  66  SE23G29 29.82F
#AJAX           N/A         36  31  82  CALM    29.78F
#CONDON SCHOOL  N/A         46  37  71  CALM    29.80F
#CONDON 5W      N/A         43  32  65  SE17G28 29.80F WCI 35
#FOSSIL SCHOOL  N/A         48  36  63  S5      29.83S
#HEPPNER EOC    N/A         50  36  58  E7      29.81F
#HEPPNER 4NE    N/A         48  35  60  SE9     29.87F
#LEXINGTON 2SE  N/A         53  39  59  S15     29.78F
#MIKKALO        N/A         35  33  92  NE1     29.84F
#OLEX 4N        N/A         36  35  96  CALM    29.85F
#RUGGS 5NE      N/A         46  32  58  N8      29.98F
#RUGGS 2SW      N/A         45  35  68  S14G24  29.89S WCI 39

$$

ORZ502-503-190910-
BLUE MOUNTAINS

CITY            SKY/WX      TMP DP  RH  WIND    PRES   REMARKS
MEACHAM         LGT RAIN    38  33  82  CALM    29.91S
#BATTLE MTN DOT N/A         38  34  85  SE14    N/A    WCI 30
#HARDMAN 10S    N/A         35  33  92  S7      30.08F
#HEPPNER 15SE   N/A         39  34  82  S2      29.75F
#LADD CYN SMT   N/A         38  29  70  SE24G32 N/A    WCI 27
#LADD CREEK ODOTN/A         40  26  57  S15     N/A    WCI 32
#LONG CREEK HS  N/A         43  35  73  CALM    29.86F
#N POWDER DOT   N/A         39  33  79  SE22    N/A    WCI 29
#PIKES PEAK     N/A         46  32  58  S26G39  27.99S WCI 37
#TOLLGATE       N/A         33  32  96  SW6     29.85S
#TROY SCHOOL    N/A         38  36  92  CALM    29.88F
#UKIAH          N/A         39  34  82  CALM    30.02F
#WESTON 4E      N/A         42  34  73  E10     29.88S
$$

ORZ505-190910-
JOHN DAY BASIN

CITY            SKY/WX      TMP DP  RH  WIND    PRES   REMARKS
JOHN DAY        CLOUDY      45  32  60  SE15    29.94F WCI 38
#JOHN DAY KJDY  N/A         43  42  96  S2      30.01F
#DAYVILLE SCHOOLN/A         32  29  89  CALM    30.16S
#MONUMENT HS    N/A         44  36  73  N10     29.92F
#MT. VERNON 5SE N/A         40  33  76  SE7     29.89R
#WINLOCK        N/A         43  34  70  NW1     29.97F
$$

ORZ506-190910-
OCHOCO AND JOHN DAY HIGHLANDS

CITY            SKY/WX      TMP DP  RH  WIND    PRES   REMARKS
#HORSE RIDGE DO N/A         40  33  76  SE16G25 N/A    WCI 32
#KEYES SMT DOT  N/A         38  32  79  SE10    N/A
#PRAIRIE CITY   N/A         40  29  64  E2      30.03F
#SENECA         N/A         36  N/A N/A S5      N/A
#SENECA 9NW     N/A         34  32  92  CALM    30.02F
$$

ORZ049-190910-
GRANDE RONDE VALLEY

CITY            SKY/WX      TMP DP  RH  WIND    PRES   REMARKS
LA GRANDE       CLOUDY      45  30  55  S18G26  29.94F WCI 37
#COVE           N/A         46  40  79  SE1     30.03S
#COVE SCHOOL    N/A         46  35  65  E7      29.91F
#COVE 6NW       N/A         42  35  76  S8      30.03F
#ELGIN 3N       N/A         43  31  62  SW8     29.68F
#ELGIN 1E       N/A         43  35  73  CALM    N/A
#IMBLER SCHOOL  N/A         42  35  76  SW5     29.90F
#ISLAND CITY 4N N/A         47  46  96  CALM    29.83R
#LADD CYN DOT   N/A         42  32  67  S26G35  N/A    WCI 32
#UNION 1S       N/A         44  36  73  SE8     29.91F
$$

ORZ050-190910-
WALLOWA COUNTY

CITY            SKY/WX      TMP DP  RH  WIND    PRES   REMARKS
JOSEPH AIRPORT  CLOUDY      30  30  100 CALM    29.94F FOG
#ENTERPRISE AP  N/A         31  29  92  CALM    29.88F
#ENTERPRISE HS  N/A         32  31  96  CALM    29.96F
#IMNAHA SCHOOL  N/A         50  35  56  S12     29.95F
#IMNAHA 10S     N/A         45  32  60  SW13G24 29.96F WCI 39
#JOSEPH 3N      N/A         30  30  100 CALM    29.96F
#JOSEPH 3W      N/A         31  28  88  CALM    29.76F
#LOSTINE        N/A         31  30  96  CALM    29.85F
#MT HOWARD 8000 N/A         29  23  78  S15G29  29.86F WCI 18
#PROMISE 1S     N/A         33  32  96  CALM    30.12F
#SHEEP RDG 7000 N/A         30  25  81  CALM    30.00F
#WALLOWA SCHOOL N/A         32  31  96  CALM    31.02F



$$



USA.gov is the U.S. government's official web portal to all federal, state and local government web resources and services.